GW2094 Weather Reports


Display with metric or nautical units.
time (UTC)temp
F
wind
direction
speed
MPH
gust
MPH
rain 1hr
in
rain 24hr
in
rain mn
in
humidity
%
barometer
mb
20260508043227 57 0.0 0.0 0.00 0.00 0.00 59 1015.7
20260508041017 56 0.0 0.0 0.00 0.00 0.00 91 1015.4
20260508035910 56 0.0 0.0 0.00 0.00 0.00 91 1015.3
20260508034803 56 0.0 0.0 0.00 0.00 0.00 91 1015.2
20260508033656 56 0.0 0.0 0.00 0.00 0.00 89 1015.3
20260508032549 56 0.0 0.0 0.00 0.00 0.00 87 1015.3
20260508031442 56 0.0 0.0 0.00 0.00 0.00 62 1015.3
20260508030335 56 0.0 0.0 0.00 0.00 0.00 38 1015.1
20260508025228 56 0.0 0.0 0.00 0.00 0.00 17 1014.9
20260508024121 56 0.0 0.0 0.00 0.00 0.00 5 1014.9
20260508023014 56 0.0 0.0 0.00 0.00 0.00 5 1015.0
20260508021907 56 0.0 0.0 0.00 0.00 0.00 5 1014.9
20260508020801 57 0.0 0.0 0.00 0.00 0.00 5 1014.9
20260508015653 56 0.0 0.0 0.00 0.00 0.00 5 1014.9
20260508013443 57 0.0 0.0 0.00 0.00 0.00 5 1015.0
20260508012336 57 0.0 0.0 0.00 0.00 0.00 5 1015.1
20260508011229 58 0.0 0.0 0.00 0.00 0.00 5 1015.1
20260508010122 58 0.0 0.0 0.00 0.00 0.00 5 1015.1
20260508005016 58 0.0 0.0 0.00 0.00 0.00 5 1015.1
20260508003908 58 0.0 0.0 0.00 0.00 0.00 5 1014.9
20260508001658 59 0.0 0.0 0.00 0.00 0.00 5 1015.0
20260508000551 60 0.0 0.0 0.00 0.00 0.00 5 1015.3
20260507235443 60 0.0 0.0 0.00 0.00 0.00 5 1015.2
20260507233232 61 0.0 0.0 0.00 0.00 0.00 5 1015.1
20260507232125 61 0.0 0.0 0.00 0.00 0.00 5 1015.1
20260507231017 61 0.0 0.0 0.00 0.00 0.00 5 1015.1
20260507225910 61 0.0 0.0 0.00 0.00 0.00 5 1015.0
20260507224804 61 0.0 0.0 0.00 0.00 0.00 5 1015.0
20260507223656 61 0.0 0.0 0.00 0.00 0.00 5 1015.3
20260507221445 61 0.0 0.0 0.00 0.00 0.00 5 1015.5
20260507220338 62 0.0 0.0 0.00 0.00 0.00 5 1015.5
20260507215232 62 0.0 0.0 0.00 0.00 0.00 5 1015.6
20260507214124 62 0.0 0.0 0.00 0.00 0.00 5 1015.5
20260507211914 62 0.0 0.0 0.00 0.00 0.00 5 1015.5
20260507210807 62 0.0 0.0 0.00 0.00 0.00 5 1015.5
20260507132027 75 0.0 0.0 0.00 0.00 0.00 25 1014.8
20260507125816 75 0.0 0.0 0.00 0.00 0.00 27 1014.8
20260507124709 75 0.0 0.0 0.00 0.00 0.00 27 1014.9
20260507123602 75 0.0 0.0 0.00 0.00 0.00 26 1015.1
20260507093857 71 0.0 0.0 0.00 0.00 0.00 5 1016.2
20260507092750 71 0.0 0.0 0.00 0.00 0.00 5 1016.3
20260507090540 69 0.0 0.0 0.00 0.00 0.00 5 1016.3
20260507085433 69 0.0 0.0 0.00 0.00 0.00 5 1016.4
20260507084326 68 0.0 0.0 0.00 0.00 0.00 5 1016.3
20260507083219 68 0.0 0.0 0.00 0.00 0.00 5 1016.4
20260507082113 67 0.0 0.0 0.00 0.00 0.00 5 1016.4
20260507081005 67 0.0 0.0 0.00 0.00 0.00 5 1016.3
20260507075859 66 0.0 0.0 0.00 0.00 0.00 5 1016.2
20260507074752 66 0.0 0.0 0.00 0.00 0.00 5 1016.1
20260507073646 65 0.0 0.0 0.00 0.00 0.00 5 1016.3
20260507072539 65 0.0 0.0 0.00 0.00 0.00 5 1016.2
20260507071432 64 0.0 0.0 0.00 0.00 0.00 5 1016.3
20260507070326 64 0.0 0.0 0.00 0.00 0.00 5 1016.2
20260507065218 63 0.0 0.0 0.00 0.00 0.00 5 1016.2
20260507064112 64 0.0 0.0 0.00 0.00 0.00 5 1016.1
20260507063005 63 0.0 0.0 0.00 0.00 0.00 5 1016.0
20260507060754 61 0.0 0.0 0.00 0.00 0.00 5 1016.1
20260507055647 60 0.0 0.0 0.00 0.00 0.00 5 1016.1
20260507054540 59 0.0 0.0 0.00 0.00 0.00 5 1016.2
20260507053433 59 0.0 0.0 0.00 0.00 0.00 5 1016.0
20260507052326 58 0.0 0.0 0.00 0.00 0.00 5 1016.0
20260507051219 57 0.0 0.0 0.00 0.00 0.00 5 1016.1
20260507050111 56 0.0 0.0 0.00 0.00 0.00 5 1016.1
20260507045005 55 0.0 0.0 0.00 0.00 0.00 5 1016.2